Location: Franzen
(48.6167°N, 15.3833°E)
Time: 15:03:01
(UTC+00:00)

Transit 2A Rocket - Pass Details

Date: 06 August 2021
Orbit: 586 x 916 km, 66.7° (Epoch: 23 September)

Event Time Altitude Azimuth Distance (km) Brightness Sun altitude
Rises 20:38:31 0° 322° (NW) 3,281 10.1 -17.3°
Reaches altitude 10° 20:40:52 10° 318° (NW) 2,398 8.9 -17.5°
Maximum altitude 20:46:19 58° 241° (WSW) 993 5.5 -18.1°
Enters shadow 20:49:24 28° 173° (S) 1,603 6.1 -18.4°
